Home   Weather   Angels Camp   Past weeks

Flag for USA Past Weather in Angels Camp, California, USA — Yesterday and Last 2 Weeks

Now
59 °F

Overcast.


Feels Like: 58 °F
Forecast: 48 / 62 °F
Wind: 7 mph from North

Location: Modesto City-County-Sham Field

Current Time: Apr 26, 2017 at 9:02:15 am

Latest Report: Apr 26, 2017 at 7:53 am


Visibility: 10 mi

Pressure: 30.07 "Hg

Humidity: 84%

Dew Point: 54 °F

Location of Angels CampLocation

Past Weather in Angels Camp — Graph

°F

Angels Camp Temperature Yesterday

Maximum temperature yesterday: 72 °F (at 2:53 pm)
Minimum temperature yesterday: 51 °F (at 3:53 am)
Average temperature yesterday: 62 °F

High & Low Weather Summary for the Past Weeks

 TemperatureHumidityPressure
High79 °F (Apr 21, 3:53 pm)100% (Apr 17, 3:53 am)30.29 "Hg (Apr 17, 3:53 am)
Low45 °F (Apr 14, 5:53 am)23% (Apr 22, 10:53 am)29.87 "Hg (Apr 12, 5:53 pm)
Average61 °F65%30.04 "Hg
* Reported Apr 11 7:53 am — Apr 26 7:53 am, Angels Camp, Weather by CustomWeather, © 2017

Note: Actual official high and low records may vary slightly from our data, if they occured in-between our weather recording intervals... More about our weather records

Advertising

Angels Camp Weather History for the Previous 24 Hours

Scroll right to see more
 ConditionsComfort  
Time TempWeatherWind HumidityBarometerVisibility
7:53 am
Wed, Apr 26
59 °FOvercast.7 mph84%30.07 "Hg10 mi
6:53 am59 °FOvercast.5 mph81%30.04 "Hg10 mi
5:53 am58 °FOvercast.N/A81%30.03 "Hg10 mi
4:53 am58 °FMostly cloudy.No wind81%30.01 "Hg10 mi
3:53 am58 °FOvercast.3 mph81%30.02 "Hg10 mi
2:53 am58 °FOvercast.5 mph81%30.02 "Hg10 mi
1:53 am59 °FPassing clouds.8 mph75%30.05 "Hg10 mi
12:53 am60 °FClear.7 mph72%30.06 "Hg10 mi
11:53 pm
Tue, Apr 25
59 °FClear.10 mph75%30.05 "Hg10 mi
10:53 pm60 °FClear.10 mph69%30.06 "Hg10 mi
9:53 pm62 °FClear.14 mph65%30.04 "Hg10 mi
8:53 pm62 °FClear.15 mph65%30.05 "Hg10 mi
7:53 pm63 °FPassing clouds.15 mph63%30.04 "Hg10 mi
6:53 pm67 °FSunny.18 mph55%30.02 "Hg10 mi
5:53 pm70 °FSunny.20 mph47%30.01 "Hg10 mi
4:53 pm72 °FSunny.15 mph40%30.01 "Hg10 mi
3:53 pm72 °FSunny.17 mph35%30.01 "Hg10 mi
2:53 pm72 °FSunny.18 mph31%30.02 "Hg10 mi
1:53 pm71 °FSunny.17 mph36%30.03 "Hg10 mi
12:53 pm69 °FSunny.20 mph41%30.06 "Hg10 mi
11:53 am67 °FSunny.16 mph42%30.05 "Hg10 mi
10:53 am66 °FSunny.14 mph45%30.06 "Hg10 mi
9:53 am61 °FSunny.17 mph54%30.07 "Hg10 mi
Weather by CustomWeather, © 2017

See weather overviewHow to use our weather pages